CW3202 Weather Reports


Display with metric or nautical units.
time (UTC)temp
F
wind
direction
speed
MPH
gust
MPH
rain 1hr
in
rain 24hr
in
rain mn
in
humidity
%
barometer
mb
20260906191324 67 118 0.0 3.0 0.00 0.00 0.00 76 1015.7
20260906190624 66 319 2.0 3.0 0.00 0.00 0.00 79 1015.8
20260906190125 65 98 2.0 4.0 0.00 0.00 0.00 81 1015.8
20260906185625 65 265 1.0 4.0 0.00 0.00 0.00 81 1015.7
20260906185124 65 296 2.0 3.0 0.00 0.00 0.00 81 1015.8
20260906184625 64 360 0.0 3.0 0.00 0.00 0.00 82 1015.9
20260906183825 63 75 3.0 3.0 0.00 0.00 0.00 85 1016.0
20260906183324 62 332 2.0 4.0 0.00 0.00 0.00 87 1016.0
20260906182625 61 18 1.0 4.0 0.00 0.00 0.00 89 1016.1
20260906182125 61 18 2.0 3.0 0.00 0.00 0.00 90 1016.0
20260906181624 60 332 2.0 4.0 0.00 0.00 0.00 92 1016.0
20260906181125 60 332 1.0 4.0 0.00 0.00 0.00 93 1016.0
20260906180425 59 351 2.0 4.0 0.00 0.00 0.00 94 1016.0
20260906175924 59 5 3.0 3.0 0.00 0.00 0.00 96 1015.9
20260906175425 59 340 1.0 3.0 0.00 0.00 0.00 97 1016.0
20260906174925 58 5 3.0 4.0 0.00 0.00 0.00 98 1015.8
20260906174425 58 355 2.0 4.0 0.00 0.00 0.00 99 1015.9
20260906173924 58 27 2.0 4.0 0.00 0.00 0.00 100 1015.9
20260906173330 57 342 1.0 3.0 0.00 0.00 0.00 100 1015.9
20260906172825 56 336 2.0 4.0 0.00 0.00 0.00 100 1015.9
20260906172324 56 360 2.0 4.0 0.00 0.00 0.00 100 1015.9
20260906171424 55 65 0.0 5.0 0.00 0.00 0.00 100 1016.0
20260906170924 55 22 4.0 5.0 0.00 0.00 0.00 100 1016.0
20260906170424 54 26 1.0 3.0 0.00 0.00 0.00 100 1015.9
20260906165925 54 26 1.0 3.0 0.00 0.00 0.00 100 1016.0
20260906165125 54 16 2.0 3.0 0.00 0.00 0.00 100 1016.0
20260906164624 54 16 3.0 3.0 0.00 0.00 0.00 100 1016.0
20260906164125 54 28 1.0 3.0 0.00 0.00 0.00 100 1016.0
20260906163624 54 57 3.0 3.0 0.00 0.00 0.00 100 1016.0
20260906163124 54 14 2.0 3.0 0.00 0.00 0.00 100 1016.0
20260906162624 53 14 1.0 4.0 0.00 0.00 0.00 100 1016.1
20260906162124 53 14 3.0 4.0 0.00 0.00 0.00 100 1016.0
20260906161624 53 202 2.0 2.0 0.00 0.00 0.00 100 1016.0
20260906161124 53 202 1.0 1.0 0.00 0.00 0.00 100 1016.1
20260906160224 53 183 0.0 3.0 0.00 0.00 0.00 100 1016.0
20260906155726 53 183 3.0 3.0 0.00 0.00 0.00 100 1015.9
20260906155224 53 182 1.0 1.0 0.00 0.00 0.00 100 1015.9
20260906154724 52 182 0.0 3.0 0.00 0.00 0.00 100 1015.8
20260906154224 52 182 1.0 3.0 0.00 0.00 0.00 100 1015.8
20260906153525 52 182 0.0 2.0 0.00 0.00 0.00 100 1015.8
20260906153024 52 182 0.0 1.0 0.00 0.00 0.00 100 1015.7
20260906152525 52 182 1.0 1.0 0.00 0.00 0.00 100 1015.7
20260906152025 52 182 0.0 1.0 0.00 0.00 0.00 100 1015.6
20260906151525 52 182 1.0 2.0 0.00 0.00 0.00 100 1015.6
20260906151025 52 182 1.0 2.0 0.00 0.00 0.00 100 1015.5
20260906150524 52 182 1.0 2.0 0.00 0.00 0.00 100 1015.5
20260906150025 52 182 2.0 2.0 0.00 0.00 0.00 100 1015.5
20260906145525 52 182 1.0 2.0 0.00 0.00 0.00 100 1015.4
20260906145025 52 182 1.0 1.0 0.00 0.00 0.00 100 1015.5
20260906144325 52 182 0.0 1.0 0.00 0.00 0.00 100 1015.3
20260906143824 52 182 0.0 2.0 0.00 0.00 0.00 100 1015.2
20260906143124 52 182 1.0 2.0 0.00 0.00 0.00 100 1015.2
20260906142625 52 182 1.0 2.0 0.00 0.00 0.00 100 1015.2
20260906142124 52 182 0.0 1.0 0.00 0.00 0.00 100 1015.3
20260906141627 52 182 0.0 1.0 0.00 0.00 0.00 100 1015.3
20260906141124 52 182 1.0 1.0 0.00 0.00 0.00 100 1015.3
20260906140625 52 182 0.0 0.0 0.00 0.00 0.00 100 1015.3
20260906140124 52 182 0.0 1.0 0.00 0.00 0.00 100 1015.2
20260906135425 52 182 0.0 1.0 0.00 0.00 0.00 100 1015.1
20260906134924 52 182 0.0 1.0 0.00 0.00 0.00 100 1015.2
20260906134224 52 182 0.0 2.0 0.00 0.00 0.00 100 1015.2
20260906133725 52 182 1.0 2.0 0.00 0.00 0.00 100 1015.1
20260906133225 52 182 1.0 2.0 0.00 0.00 0.00 100 1015.1
20260906132525 52 182 0.0 2.0 0.00 0.00 0.00 100 1015.2
20260906132025 52 182 1.0 1.0 0.00 0.00 0.00 100 1015.1
20260906131524 52 182 0.0 0.0 0.00 0.00 0.00 100 1015.1
20260906131025 52 182 0.0 0.0 0.00 0.00 0.00 100 1015.1
20260906130525 52 182 0.0 0.0 0.00 0.00 0.00 100 1015.0
20260906130025 52 182 0.0 0.0 0.00 0.00 0.00 100 1015.1
20260906125524 52 182 0.0 0.0 0.00 0.00 0.00 100 1015.1
20260906125024 52 182 0.0 0.0 0.00 0.00 0.00 100 1015.2
20260906124324 52 182 0.0 0.0 0.00 0.00 0.00 100 1015.2
20260906123824 52 182 0.0 0.0 0.00 0.00 0.00 100 1015.2
20260906123324 52 182 0.0 0.0 0.00 0.00 0.00 100 1015.2
20260906122625 52 182 0.0 0.0 0.00 0.00 0.00 100 1015.2
20260906122124 52 182 0.0 1.0 0.00 0.00 0.00 100 1015.2
20260906121625 52 182 0.0 1.0 0.00 0.00 0.00 100 1015.2
20260906121124 52 182 0.0 1.0 0.00 0.00 0.00 100 1015.2
20260906120625 52 182 1.0 1.0 0.00 0.00 0.00 100 1015.2
20260906120125 52 182 0.0 1.0 0.00 0.00 0.00 100 1015.2
20260906115624 52 182 0.0 0.0 0.00 0.00 0.00 100 1015.2
20260906115124 52 182 0.0 0.0 0.00 0.00 0.00 100 1015.2
20260906114424 52 182 0.0 1.0 0.00 0.00 0.00 100 1015.2
20260906113924 52 182 0.0 1.0 0.00 0.00 0.00 99 1015.2
20260906113424 52 182 0.0 1.0 0.00 0.00 0.00 99 1015.2
20260906112925 53 182 1.0 1.0 0.00 0.00 0.00 99 1015.2
20260906112424 53 182 1.0 1.0 0.00 0.00 0.00 99 1015.2
20260906111924 53 182 0.0 0.0 0.00 0.00 0.00 99 1015.3
20260906111424 53 182 0.0 0.0 0.00 0.00 0.00 100 1015.3
20260906110925 53 182 0.0 0.0 0.00 0.00 0.00 99 1015.4
20260906110424 53 182 0.0 0.0 0.00 0.00 0.00 99 1015.4
20260906105925 53 182 0.0 0.0 0.00 0.00 0.00 100 1015.4
20260906105425 53 182 0.0 0.0 0.00 0.00 0.00 99 1015.3
20260906104925 53 182 0.0 0.0 0.00 0.00 0.00 99 1015.3
20260906104425 53 182 0.0 0.0 0.00 0.00 0.00 99 1015.3
20260906103925 53 182 0.0 0.0 0.00 0.00 0.00 99 1015.3
20260906103425 53 182 0.0 0.0 0.00 0.00 0.00 99 1015.4
20260906102925 53 182 0.0 0.0 0.00 0.00 0.00 99 1015.3
20260906102424 53 182 0.0 0.0 0.00 0.00 0.00 99 1015.3
20260906101724 53 182 0.0 0.0 0.00 0.00 0.00 99 1015.3
20260906101025 53 182 0.0 0.0 0.00 0.00 0.00 99 1015.3
20260906100524 53 182 0.0 0.0 0.00 0.00 0.00 99 1015.3
20260906100024 53 182 0.0 0.0 0.00 0.00 0.00 99 1015.3
20260906095524 53 182 0.0 0.0 0.00 0.00 0.00 99 1015.2
20260906095024 53 182 0.0 0.0 0.00 0.00 0.00 99 1015.3
20260906094525 53 182 0.0 0.0 0.00 0.00 0.00 99 1015.3
20260906094024 53 182 0.0 0.0 0.00 0.00 0.00 99 1015.3
20260906093325 53 182 0.0 0.0 0.00 0.00 0.00 99 1015.2
20260906092824 53 182 0.0 1.0 0.00 0.00 0.00 99 1015.2
20260906092324 53 182 0.0 1.0 0.00 0.00 0.00 99 1015.2
20260906091825 53 182 0.0 2.0 0.00 0.00 0.00 99 1015.2
20260906091325 53 182 1.0 2.0 0.00 0.00 0.00 99 1015.2
20260906090624 53 182 0.0 1.0 0.00 0.00 0.00 99 1015.2
20260906090125 53 182 0.0 1.0 0.00 0.00 0.00 99 1015.2
20260906085624 53 182 0.0 1.0 0.00 0.00 0.00 99 1015.3
20260906084925 53 182 0.0 1.0 0.00 0.00 0.00 99 1015.4
20260906084425 53 182 1.0 1.0 0.00 0.00 0.00 99 1015.4
20260906083924 53 182 1.0 1.0 0.00 0.00 0.00 99 1015.3
20260906083424 53 182 0.0 1.0 0.00 0.00 0.00 99 1015.4
20260906082925 53 182 0.0 1.0 0.00 0.00 0.00 99 1015.6
20260906082425 53 182 0.0 1.0 0.00 0.00 0.00 99 1015.6
20260906081924 53 182 1.0 1.0 0.00 0.00 0.00 99 1015.6
20260906081225 53 182 0.0 2.0 0.00 0.00 0.00 99 1015.5
20260906080724 53 182 0.0 2.0 0.00 0.00 0.00 99 1015.5
20260906080225 53 182 0.0 2.0 0.00 0.00 0.00 99 1015.5
20260906075324 52 182 2.0 3.0 0.00 0.00 0.00 99 1015.5
20260906074625 53 182 2.0 3.0 0.00 0.00 0.00 99 1015.3
20260906074124 53 182 3.0 3.0 0.00 0.00 0.00 99 1015.5
20260906073425 53 182 0.0 1.0 0.00 0.00 0.00 99 1015.6
20260906072925 53 182 0.0 1.0 0.00 0.00 0.00 99 1015.6
20260906072424 53 182 1.0 1.0 0.00 0.00 0.00 99 1015.6
20260906071924 53 182 0.0 1.0 0.00 0.00 0.00 99 1015.7
20260906071424 53 182 1.0 1.0 0.00 0.00 0.00 99 1015.6
20260906070924 53 182 1.0 1.0 0.00 0.00 0.00 99 1015.6
20260906070224 53 182 0.0 2.0 0.00 0.00 0.00 99 1015.5
20260906065725 53 182 0.0 2.0 0.00 0.00 0.01 99 1015.4
20260906065224 53 182 1.0 1.0 0.00 0.00 0.01 99 1015.5
20260906064724 52 182 0.0 0.0 0.00 0.00 0.01 99 1015.5
20260906064224 52 182 0.0 1.0 0.00 0.00 0.01 99 1015.4
20260906063724 52 182 0.0 1.0 0.00 0.00 0.01 99 1015.4
20260906063225 52 182 0.0 1.0 0.00 0.00 0.01 99 1015.5
20260906062724 52 182 0.0 1.0 0.00 0.00 0.01 99 1015.6
20260906062224 52 182 1.0 1.0 0.00 0.00 0.01 99 1015.7
20260906061724 52 182 0.0 0.0 0.00 0.00 0.01 99 1015.7
20260906061224 52 182 0.0 1.0 0.00 0.00 0.01 98 1015.7
20260906060724 52 182 0.0 1.0 0.00 0.00 0.01 98 1015.9
20260906060025 52 182 0.0 0.0 0.00 0.00 0.01 98 1015.8
20260906055325 52 182 0.0 0.0 0.00 0.00 0.01 98 1016.0
20260906054824 52 182 0.0 0.0 0.00 0.00 0.01 98 1016.0
20260906054324 52 182 0.0 0.0 0.00 0.00 0.01 98 1016.0
20260906053624 52 182 0.0 1.0 0.00 0.00 0.01 98 1016.2
20260906053125 52 182 0.0 1.0 0.00 0.00 0.01 97 1016.0
20260906052624 52 182 1.0 2.0 0.00 0.00 0.01 97 1016.0
20260906052124 52 182 1.0 2.0 0.00 0.00 0.01 97 1016.1
20260906051624 52 182 1.0 2.0 0.00 0.00 0.01 97 1016.1
20260906051124 52 182 0.0 0.0 0.00 0.00 0.01 97 1016.0
20260906050625 53 182 0.0 0.0 0.00 0.00 0.01 97 1016.0
20260906050124 53 182 0.0 0.0 0.00 0.00 0.01 97 1016.1
20260906045625 53 182 0.0 1.0 0.00 0.00 0.01 97 1016.2
20260906045124 53 182 0.0 1.0 0.00 0.00 0.01 97 1016.1
20260906044625 53 182 0.0 1.0 0.00 0.00 0.01 96 1016.1
20260906044125 54 182 0.0 2.0 0.00 0.00 0.01 96 1016.0
20260906043624 54 182 0.0 2.0 0.00 0.00 0.01 97 1016.1
20260906043124 54 182 0.0 2.0 0.00 0.00 0.01 97 1016.0
20260906042624 54 182 2.0 2.0 0.00 0.00 0.01 96 1016.0
20260906042125 54 182 0.0 0.0 0.00 0.00 0.01 96 1016.0
20260906041625 54 182 0.0 0.0 0.00 0.00 0.01 95 1016.0
20260906040724 55 182 0.0 0.0 0.00 0.00 0.01 96 1016.0
20260906040225 55 182 0.0 0.0 0.00 0.00 0.01 95 1015.9
20260906035725 55 182 0.0 0.0 0.00 0.00 0.01 95 1016.0
20260906035225 55 182 0.0 0.0 0.00 0.00 0.01 94 1015.9
20260906034524 56 182 0.0 0.0 0.00 0.00 0.01 94 1015.7
20260906034024 56 182 0.0 1.0 0.00 0.00 0.01 94 1015.6
20260906033524 57 182 0.0 1.0 0.00 0.00 0.01 94 1015.5
20260906033024 57 182 0.0 1.0 0.00 0.00 0.01 95 1015.5
20260906032525 57 182 0.0 1.0 0.00 0.00 0.01 94 1015.5
20260906032025 58 182 0.0 0.0 0.00 0.00 0.01 92 1015.5
20260906031524 58 182 0.0 0.0 0.00 0.00 0.01 92 1015.5
20260906031024 58 182 0.0 0.0 0.00 0.00 0.01 92 1015.5
20260906030525 59 182 0.0 1.0 0.00 0.00 0.01 91 1015.5
20260906030024 59 182 0.0 1.0 0.00 0.00 0.01 91 1015.6
20260906025525 60 182 0.0 2.0 0.00 0.00 0.01 92 1015.6
20260906025024 60 182 1.0 3.0 0.00 0.00 0.01 92 1015.6
20260906024524 60 182 2.0 3.0 0.00 0.00 0.01 90 1015.6
20260906023824 61 182 3.0 3.0 0.00 0.00 0.01 89 1015.5
20260906023324 62 182 3.0 3.0 0.00 0.00 0.01 87 1015.5
20260906022824 62 182 2.0 6.0 0.00 0.00 0.01 86 1015.5
20260906022325 63 188 2.0 6.0 0.00 0.00 0.01 86 1015.6
20260906021625 63 182 4.0 4.0 0.00 0.00 0.01 86 1015.7
20260906021124 63 180 2.0 2.0 0.00 0.00 0.01 86 1015.6
20260906020624 64 172 1.0 3.0 0.00 0.00 0.01 86 1015.6
20260906020125 64 178 1.0 3.0 0.00 0.00 0.01 86 1015.7
20260906015424 64 183 1.0 4.0 0.00 0.00 0.01 87 1015.7
20260906014924 64 184 2.0 5.0 0.00 0.00 0.01 86 1015.7
20260906014424 64 181 4.0 5.0 0.00 0.00 0.01 86 1015.7
20260906013924 63 171 1.0 4.0 0.00 0.00 0.01 86 1015.7
20260906013424 63 189 1.0 3.0 0.00 0.00 0.01 85 1015.6
20260906012925 64 184 2.0 3.0 0.00 0.00 0.01 85 1015.5
20260906012425 64 196 2.0 2.0 0.00 0.00 0.01 87 1015.4
20260906011925 64 203 2.0 2.0 0.00 0.00 0.01 88 1015.4
20260906011424 64 186 1.0 3.0 0.00 0.00 0.01 88 1015.4
20260906010924 65 182 1.0 3.0 0.00 0.00 0.01 86 1015.4
20260906010425 65 231 3.0 3.0 0.00 0.00 0.01 87 1015.5
20260906005925 66 256 1.0 1.0 0.00 0.00 0.01 85 1015.4
20260906005424 66 256 1.0 1.0 0.00 0.00 0.01 83 1015.4
20260906004925 66 256 0.0 1.0 0.00 0.00 0.01 82 1015.5
20260906004224 66 255 0.0 2.0 0.00 0.00 0.01 80 1015.5
20260906003724 67 254 2.0 2.0 0.00 0.00 0.01 76 1015.4
20260906003225 67 259 2.0 2.0 0.00 0.00 0.01 74 1015.4
20260906002725 67 259 0.0 2.0 0.00 0.00 0.01 72 1015.4
20260906002225 68 259 1.0 2.0 0.00 0.00 0.01 70 1015.4
20260906001724 68 360 1.0 2.0 0.00 0.00 0.01 69 1015.4
20260906001224 69 254 2.0 5.0 0.00 0.00 0.01 68 1015.3
20260906000724 70 282 2.0 5.0 0.00 0.00 0.01 68 1015.4
20260906000226 70 190 1.0 4.0 0.00 0.00 0.01 70 1015.4
20260905235725 69 171 2.0 4.0 0.00 0.00 0.01 70 1015.3
20260905235224 69 188 1.0 4.0 0.00 0.00 0.01 74 1015.3
20260905234725 69 192 4.0 4.0 0.00 0.00 0.01 75 1015.3
20260905234024 68 128 1.0 4.0 0.00 0.00 0.01 77 1015.3
20260905233525 68 125 1.0 4.0 0.00 0.00 0.01 78 1015.2
20260905233025 68 166 4.0 5.0 0.00 0.00 0.01 78 1015.2
20260905232524 68 168 1.0 5.0 0.00 0.00 0.01 76 1015.3
20260905232025 69 156 3.0 4.0 0.00 0.00 0.01 76 1015.4
20260905231525 68 166 3.0 5.0 0.00 0.00 0.01 78 1015.4
20260905230824 68 159 4.0 5.0 0.00 0.00 0.01 82 1015.4
20260905230124 67 184 3.0 6.0 0.00 0.00 0.01 83 1015.4
20260905225625 67 184 6.0 6.0 0.00 0.00 0.01 82 1015.5
20260905225124 66 168 4.0 4.0 0.00 0.00 0.01 85 1015.6
20260905224624 65 360 1.0 3.0 0.00 0.00 0.01 86 1015.6
20260905224124 65 178 1.0 3.0 0.00 0.00 0.01 88 1015.6
20260905223624 64 178 1.0 3.0 0.00 0.00 0.01 86 1015.6
20260905223124 64 183 3.0 3.0 0.00 0.00 0.01 87 1015.6
20260905222424 64 182 2.0 3.0 0.00 0.00 0.01 87 1015.6
20260905221924 65 182 3.0 3.0 0.00 0.00 0.01 87 1015.6
20260905221424 65 182 2.0 7.0 0.00 0.00 0.01 86 1015.7
20260905220925 65 182 2.0 7.0 0.00 0.00 0.01 82 1015.7
20260905220425 66 181 7.0 7.0 0.00 0.00 0.01 80 1015.8
20260905215925 67 159 2.0 3.0 0.00 0.00 0.01 75 1015.8
20260905215424 67 272 0.0 2.0 0.00 0.00 0.01 71 1015.9
20260905214925 67 272 0.0 3.0 0.00 0.00 0.01 71 1015.8
20260905214424 67 272 2.0 5.0 0.00 0.00 0.01 69 1015.8
20260905213925 68 17 3.0 5.0 0.00 0.00 0.01 68 1015.8
20260905213425 68 252 2.0 6.0 0.00 0.00 0.01 73 1015.8
20260905212924 68 260 2.0 7.0 0.00 0.00 0.01 73 1015.9
20260905212424 67 236 4.0 7.0 0.00 0.00 0.01 75 1015.8
20260905211924 67 310 1.0 7.0 0.00 0.00 0.01 73 1015.9
20260905211426 67 252 7.0 7.0 0.00 0.00 0.01 77 1016.0
20260905210925 66 307 2.0 5.0 0.00 0.00 0.01 77 1016.0
20260905210424 66 355 3.0 5.0 0.00 0.00 0.01 76 1016.1
20260905205925 67 19 4.0 4.0 0.00 0.00 0.01 75 1016.1
20260905205224 66 234 2.0 3.0 0.00 0.00 0.01 77 1016.1
20260905204725 66 245 2.0 4.0 0.00 0.00 0.01 76 1016.1
20260905204224 66 246 2.0 4.0 0.00 0.00 0.01 77 1016.1
20260905203724 66 212 4.0 4.0 0.00 0.00 0.01 77 1016.1
20260905203224 65 278 2.0 5.0 0.00 0.00 0.01 78 1016.2
20260905202724 65 242 2.0 5.0 0.00 0.00 0.01 77 1016.1
20260905202225 65 238 1.0 4.0 0.00 0.00 0.01 77 1016.2
20260905201725 66 235 2.0 4.0 0.00 0.00 0.01 75 1016.1
20260905201025 66 202 1.0 4.0 0.00 0.00 0.01 71 1016.2
20260905200525 66 202 0.0 4.0 0.00 0.00 0.01 72 1016.2
20260905195824 66 207 2.0 5.0 0.00 0.00 0.01 74 1016.2
20260905195125 66 208 5.0 5.0 0.00 0.00 0.01 74 1016.3
20260905194624 66 184 2.0 4.0 0.00 0.00 0.01 76 1016.3
20260905194124 66 161 1.0 2.0 0.00 0.00 0.01 77 1016.4
20260905193624 65 167 1.0 3.0 0.00 0.00 0.01 79 1016.5
20260905192925 64 301 0.0 3.0 0.00 0.00 0.01 77 1016.5
20260905192424 64 301 2.0 2.0 0.00 0.00 0.01 75 1016.6
20260905191724 64 301 1.0 2.0 0.00 0.00 0.01 76 1016.6